This demonstration page uses our WeatherBlox Daily Observations layout. Learn more.

Left ArrowRight Arrow

Hourly Observations for January 8, 2016

Temp ( °F °C ) Dew Point ( °F °C ) Humidity (%) Winds ( mph kmh ) Pressure ( in mb ) Visibility ( mi km ) Precip ( " mm )
12:59 am 00:59 Cloudy 48 8.9 44 6.7 86 86 NNE 9 15 30.09 1019 10 16 0.00 0.00
1:59 am 01:59 Cloudy 48 8.9 45 7.2 89 89 N 8 13 30.10 1019 10 16 0.00 0.00
2:44 am 02:44 Cloudy 48 8.9 44 6.7 86 86 N 9 15 30.12 1020 10 16 0.00 0.00
2:59 am 02:59 Cloudy 48 8.9 44 6.7 86 86 N 12 19 30.11 1020 10 16 0.00 0.00
3:59 am 03:59 Cloudy with Mist and Fog 47 8.3 44 6.7 90 90 N 9 15 30.11 1020 6 10 0.00 0.00
4:59 am 04:59 Cloudy with Mist and Fog 47 8.3 44 6.7 90 90 N 10 17 30.11 1020 6 10 0.00 0.00
5:43 am 05:43 Cloudy with Mist and Fog 46 7.8 43 6.1 89 89 N 9 15 30.12 1020 6 10 0.00 0.00
5:59 am 05:59 Cloudy with Mist and Fog 46 7.8 44 6.7 93 93 N 13 20 30.11 1020 3 5 0.00 0.00
6:28 am 06:28 Cloudy with Mist and Fog 46 7.8 43 6.1 89 89 N 17 28 30.12 1020 3 5 0.00 0.00
6:38 am 06:38 Cloudy with Mist and Fog 46 7.8 43 6.1 89 89 NNE 14 22 30.12 1020 3 5 0.00 0.00
6:59 am 06:59 Cloudy with Mist and Fog 46 7.8 43 6.1 89 89 NNE 14 22 30.11 1020 3 5 0.00 0.00
7:59 am 07:59 Cloudy with Mist and Fog 47 8.3 44 6.7 90 90 NNE 14 22 30.11 1020 3 5 0.00 0.00
8:16 am 08:16 Cloudy with Mist and Fog 47 8.3 44 6.7 90 90 NNE 13 20 30.12 1020 3 5 0.00 0.00
8:59 am 08:59 Cloudy with Mist and Fog 48 8.9 44 6.7 86 86 NNE 13 20 30.13 1020 3 5 0.00 0.00
9:28 am 09:28 Cloudy with Mist and Fog 49 9.4 44 6.7 83 83 N 12 19 30.15 1021 3 5 0.00 0.00
9:59 am 09:59 Cloudy with Mist and Fog 49 9.4 44 6.7 83 83 NNE 8 13 30.14 1021 4 6 0.00 0.00
10:23 am 10:23 Cloudy with Mist and Fog 49 9.4 45 7.2 86 86 NNE 9 15 30.15 1021 3 5 0.00 0.00
10:59 am 10:59 Cloudy with Mist and Fog 49 9.4 45 7.2 86 86 NNE 8 13 30.14 1021 3 5 0.00 0.00
11:59 am 11:59 Cloudy with Mist and Fog 50 10 44 6.7 80 80 ENE 10 17 30.10 1019 3 5 0.00 0.00
12:47 pm 12:47 Cloudy with Mist and Fog 50 10 46 7.8 86 86 NE 9 15 30.09 1019 3 5 0.00 0.00
12:59 pm 12:59 Cloudy with Mist and Fog 50 10 46 7.8 86 86 NNE 10 17 30.09 1019 3 5 0.00 0.00
1:26 pm 13:26 Cloudy with Mist and Fog 51 10.6 46 7.8 83 83 NNE 8 13 30.09 1019 3 5 0.00 0.00
1:36 pm 13:36 Cloudy with Mist and Fog 51 10.6 46 7.8 83 83 NNE 7 11 30.09 1019 4 6 0.00 0.00
1:59 pm 13:59 Cloudy with Mist and Fog 52 11.1 46 7.8 80 80 NNE 9 15 30.08 1019 5 8 0.00 0.00
2:35 pm 14:35 Cloudy with Mist and Fog 52 11.1 46 7.8 80 80 NNE 10 17 30.06 1018 5 8 0.00 0.00
2:59 pm 14:59 Cloudy with Mist and Fog 52 11.1 47 8.3 83 83 NNE 7 11 30.08 1019 6 10 0.00 0.00
3:59 pm 15:59 Cloudy with Light Rain 51 10.6 47 8.3 86 86 ENE 10 17 30.09 1019 7 11 0.00 0.03
4:59 pm 16:59 Cloudy 51 10.6 46 7.8 83 83 E 7 11 30.11 1020 7 11 0.00 0.03
5:59 pm 17:59 Cloudy 50 10 45 7.2 83 83 NE 8 13 30.12 1020 7 11 0.00 0.00
6:24 pm 18:24 Cloudy 50 10 45 7.2 83 83 NE 10 17 30.12 1020 7 11 0.00 0.00
6:59 pm 18:59 Cloudy 50 10 45 7.2 83 83 NE 10 17 30.11 1020 7 11 0.00 0.00
7:59 pm 19:59 Cloudy 49 9.4 45 7.2 86 86 ENE 13 20 30.11 1020 7 11 0.00 0.00
8:59 pm 20:59 Cloudy 50 10 46 7.8 86 86 NE 8 13 30.12 1020 7 11 0.00 0.00
9:59 pm 21:59 Cloudy 49 9.4 46 7.8 90 90 ENE 7 11 30.11 1020 7 11 0.00 0.03
10:59 pm 22:59 Cloudy 49 9.4 46 7.8 90 90 NE 7 11 30.11 1020 7 11 0.00 0.03
11:17 pm 23:17 Cloudy 49 9.4 45 7.2 86 86 NE 8 13 30.09 1019 8 13 0.00 0.00
11:59 pm 23:59 Mostly Cloudy 48 8.9 44 6.7 86 86 NE 6 9 30.09 1019 8 13 0.00 0.00

Powered by AerisWeather